Location: Unspecified
(0.0000°N, 0.0000°E)
Time: 01:28:49
(UTC+00:00)

Vanguard 2 Rocket - Pass Details

Date: 13 December 2017
Orbit: 553 x 3328 km, 32.9° (Epoch: 23 June)

Event Time Altitude Azimuth Distance (km) Brightness Sun altitude
Rises 16:06:02 0° 243° (WSW) 3,312 11.2 24.7°
Reaches altitude 10° 16:08:03 10° 247° (WSW) 2,583 11.3 24.3°
Maximum altitude 16:14:11 65° 328° (NNW) 1,381 8.2 22.9°
Drops below altitude 10° 16:25:15 10° 48° (NE) 4,495 9.9 20.4°
Sets 16:29:55 0° 51° (NE) 5,956 10.5 19.3°
